Location: Lugrin
(46.4033°N, 6.6674°E)
Time: 08:08:10
(UTC+00:00)

N. Korean satellite - Pass Details

Date: 27 November 2020
Orbit: 453 x 502 km, 97.2° (Epoch: 16 January)

Event Time Altitude Azimuth Distance (km) Brightness Sun altitude
Rises 04:21:00 0° 25° (NNE) 2,547 10.5 -25.4°
Reaches altitude 10° 04:23:22 10° 40° (NE) 1,672 9.7 -25.0°
Maximum altitude 04:26:18 23° 95° (E) 1,080 9.1 -24.5°
Drops below altitude 10° 04:29:14 10° 149° (SSE) 1,681 9.7 -24.0°
Sets 04:31:37 0° 164° (SSE) 2,565 10.5 -23.5°
